Miscellaneous Local Product
Issued by NWS Hastings, NE

Home | Current Version | Previous Version | Graphics & Text | Print | Product List | Glossary On
Versions: 1 2 3 4 5 6 7 8 9 10 11 12 13 14 15 16 17 18 19 20 21 22 23 24 25 26 27 28 29 30 31 32 33 34 35 36 37 38 39 40 41 42 43 44 45 46 47 48 49 50
000
AXUS43 KGID 011702
MISGRI

GID CWA HOURLY WEATHER ROUNDUP
NATIONAL WEATHER SERVICE HASTINGS NE
1200 PM CDT FRI AUG 01 2014

NOTE: "FAIR" INDICATES FEW OR NO CLOUDS BELOW 12,000 FEET WITH NO
SIGNIFICANT WEATHER AND/OR OBSTRUCTIONS TO VISIBILITY.

...SOUTH CENTRAL NEBRASKA...

CITY           SKY/WX    TMP DP  RH WIND       PRES   REMARKS
GRAND ISLAND   SUNNY     78  60  53 NE7       30.13R
HASTINGS       SUNNY     79  58  48 N12       30.12S
KEARNEY        SUNNY     81  59  47 N8        30.14S
ORD            SUNNY     80  56  43 NE5       30.13S
YORK           SUNNY     75  63  64 N13       30.11R
AURORA         SUNNY     78  62  59 N9        30.11S
LEXINGTON      SUNNY     81  59  47 NW3       30.14S
HOLDREGE       SUNNY     79  61  54 NE6       30.14S
HEBRON         SUNNY     79  58  48 N8        30.08S

...NEBRASKA PANHANDLE...

CITY           SKY/WX    TMP DP  RH WIND       PRES   REMARKS
CHADRON        SUNNY     89  45  21 MISG      30.13S
ALLIANCE       SUNNY     84  42  22 CALM      30.19F
SCOTTSBLUFF    SUNNY     83  53  35 VRB3      30.21S
SIDNEY         SUNNY     85  44  23 NW7       30.24S

...WESTERN AND NORTH CENTRAL NEBRASKA...

CITY           SKY/WX    TMP DP  RH WIND       PRES   REMARKS
VALENTINE      SUNNY     85  53  33 S6        30.13S
AINSWORTH      SUNNY     81  53  37 SE6       30.14F
ONEILL         MOSUNNY   79  57  46 SE5       30.14S
BROKEN BOW     SUNNY     80  58  46 CALM      30.14F
IMPERIAL       SUNNY     84  49  29 E5        30.18R
NORTH PLATTE   SUNNY     82  56  40 CALM      30.15F
MCCOOK         SUNNY     82  57  42 S3        30.15S

...EASTERN NEBRASKA...

CITY           SKY/WX    TMP DP  RH WIND       PRES   REMARKS
NORFOLK        SUNNY     78  60  53 E8        30.11F
SO SIOUX CITY  SUNNY     79  61  53 VRB3      30.11S
TEKAMAH        PTSUNNY   78  62  57 VRB3      30.10S
ALBION         SUNNY     77  61  56 NE7       30.13R
OMAHA EPPLEY   PTSUNNY   76  63  64 VRB3      30.09S
OFFUTT AFB     MOSUNNY   78  66  67 NE8       30.08S
MILLARD        MOSUNNY   81  62  53 SE6       30.08S
LINCOLN        MOSUNNY   79  59  50 E8        30.09R
NEBRASKA CITY  PTSUNNY   78  60  53 SE9       30.08S
BEATRICE       MOSUNNY   76  62  62 NE6       30.07R
FALLS CITY     SUNNY     80  64  58 SE13G18   30.06S

...NORTHERN KANSAS...

CITY           SKY/WX    TMP DP  RH WIND       PRES   REMARKS
GOODLAND       SUNNY     83  50  31 NW8       30.21R
HILL CITY      SUNNY     86  52  30 N8        30.13S
NORTON         SUNNY     84  48  28 NE7       30.13S
PHILLIPSBURG   SUNNY     82  54  36 CALM      30.11S
SMITH CENTER   SUNNY     82  54  36 N9G16     30.10F
HAYS           SUNNY     84  54  34 NE8       30.11S
RUSSELL        SUNNY     86  56  35 N9        30.09S
CONCORDIA      SUNNY     83  59  44 N12       30.06F
SALINA         SUNNY     86  59  39 NE6       30.06S
TOPEKA         MOSUNNY   84  60  44 S9        30.06S



USA.gov is the U.S. government's official web portal to all federal, state and local government web resources and services.